Weather History for Vero Beach, FL

Change the Weather History Date:

Monday, June 17, 2013

  Actual Average Record
Temperature  
Mean Temperature 84 °F 80 °F  
Max Temperature 93 °F 89 °F 96 °F (1958)
Min Temperature 74 °F 72 °F 65 °F (1980)
Degree Days  
Heating Degree Days 0 0  
Month to date heating degree days 0 0  
Since 1 June heating degree days 0 0  
Since 1 July heating degree days 398 456  
Cooling Degree Days 19 15  
Month to date cooling degree days 279 250  
Year to date cooling degree days 1186 1056  
Since 1 June cooling degree days 279 250  
Growing Degree Days 32 (Base 50)    
Moisture  
Dew Point 75 °F    
Average Humidity 76    
Maximum Humidity 100    
Minimum Humidity 52    
Precipitation  
Precipitation 0.00 in 0.23 in 2.55 in (1959)
Month to date precipitation 2.96 3.70  
Year to date precipitation 18.18 19.07  
Sea Level Pressure  
Sea Level Pressure 30.06 in    
Wind  
Wind Speed 9 mph (SSE)    
Max Wind Speed 20 mph    
Max Gust Speed 24 mph    
Visibility 10 miles    
Events      
T = Trace of Precipitation, MM = Missing Value Source: NWS Daily Summary

Daily Weather History Graph

Daily Weather History Graph

Search for Another Location

Airport:

Trip Planner

Search our weather history database for the weather conditions in past years. The results will help you decide how hot, cold, wet, or windy it might be!

Date:

Astronomy

Jun. 17, 2013 Rise Set
Actual Time 6:26 AM EDT 8:19 PM EDT
Civil Twilight 5:59 AM EDT 8:46 PM EDT
Nautical Twilight 5:27 AM EDT 9:18 PM EDT
Astronomical Twilight 4:53 AM EDT 9:52 PM EDT
Moon 2:21 PM EDT (6/17) 1:32 AM EDT (6/17)
Length of Visible Light 14h 46m
Length of Day
13h 53m
First Quarter, 60% of the Moon is Illuminated
Jun 17
First Quarter
Jun 23
Full
Jun 30
Last Quarter
Jul 8
New
Jul 15
First Quarter

Hourly Weather History & Observations

Time (EDT) Temp. Heat Index Dew Point Humidity Pressure Visibility Wind Dir Wind Speed Gust Speed Precip Events Conditions
12:53 AM 81.0 °F 87.3 °F 75.9 °F 85% 30.09 in 10.0 mi SE 9.2 mph - N/A   Clear
1:53 AM 81.0 °F 86.7 °F 75.0 °F 82% 30.08 in 10.0 mi South 4.6 mph - N/A   Partly Cloudy
2:53 AM 79.0 °F - 75.0 °F 88% 30.05 in 10.0 mi SSE 5.8 mph - N/A   Clear
3:53 AM 79.0 °F - 75.0 °F 88% 30.03 in 10.0 mi South 8.1 mph - N/A   Clear
4:53 AM 75.9 °F - 73.0 °F 91% 30.06 in 10.0 mi Calm Calm - N/A   Clear
5:53 AM 75.9 °F - 73.9 °F 94% 30.05 in 10.0 mi Calm Calm - N/A   Clear
6:53 AM 73.9 °F - 73.0 °F 97% 30.06 in 9.0 mi Calm Calm - N/A   Clear
7:53 AM 81.0 °F 86.7 °F 75.0 °F 82% 30.06 in 10.0 mi South 4.6 mph - N/A   Clear
8:53 AM 84.0 °F 91.9 °F 75.0 °F 74% 30.08 in 10.0 mi South 6.9 mph - N/A   Clear
9:53 AM 87.1 °F 94.5 °F 73.0 °F 63% 30.08 in 10.0 mi SSE 5.8 mph - N/A   Scattered Clouds
10:17 AM 87.8 °F 95.6 °F 73.4 °F 62% 30.08 in 10.0 mi Variable 4.6 mph - N/A   Mostly Cloudy
10:53 AM 88.0 °F 94.7 °F 72.0 °F 59% 30.08 in 10.0 mi SSW 4.6 mph - N/A   Scattered Clouds
11:53 AM 91.0 °F 98.2 °F 72.0 °F 53% 30.08 in 10.0 mi SSW 9.2 mph - N/A   Scattered Clouds
12:53 PM 91.0 °F 102.9 °F 75.9 °F 61% 30.06 in 10.0 mi ESE 11.5 mph - N/A   Mostly Cloudy
1:53 PM 91.0 °F 102.9 °F 75.9 °F 61% 30.06 in 10.0 mi ESE 13.8 mph 18.4 mph N/A   Scattered Clouds
2:53 PM 91.0 °F 102.9 °F 75.9 °F 61% 30.05 in 10.0 mi SE 15.0 mph - N/A   Scattered Clouds
3:53 PM 89.1 °F 100.2 °F 75.9 °F 65% 30.03 in 10.0 mi SE 17.3 mph - N/A   Scattered Clouds
4:53 PM 89.1 °F 99.1 °F 75.0 °F 63% 30.02 in 10.0 mi SE 17.3 mph - N/A   Clear
5:53 PM 88.0 °F 98.5 °F 75.9 °F 67% 30.01 in 10.0 mi SE 15.0 mph - N/A   Clear
6:53 PM 87.1 °F 96.3 °F 75.0 °F 67% 30.02 in 10.0 mi SSE 18.4 mph 24.2 mph N/A   Clear
7:53 PM 84.0 °F 91.9 °F 75.0 °F 74% 30.02 in 10.0 mi SE 15.0 mph - N/A   Clear
8:53 PM 82.9 °F 90.2 °F 75.0 °F 77% 30.04 in 10.0 mi SSE 12.7 mph - N/A   Clear
9:53 PM 82.9 °F 90.8 °F 75.9 °F 79% 30.05 in 10.0 mi SSE 11.5 mph - N/A   Clear
10:53 PM 82.0 °F 88.6 °F 75.0 °F 79% 30.07 in 10.0 mi SSE 9.2 mph - N/A   Scattered Clouds
11:53 PM 82.0 °F 88.6 °F 75.0 °F 79% 30.07 in 10.0 mi South 10.4 mph - N/A   Clear